Air Resources Laboratory banner image
Air Resources Laboratory web site National Oceanic and Atmospheric Administration (NOAA)

mt roundup


Office: TFX

ASUS45 KTFX 201510
RWRMT
MONTANA REGIONAL WEATHER ROUNDUP
NATIONAL WEATHER SERVICE GREAT FALLS MT
800 AM MST TUE NOV 20 2018

NOTE: "FAIR" INDICATES FEW OR NO CLOUDS BELOW 12000 FEET WITH NO
SIGNIFICANT WEATHER AND/OR OBSTRUCTIONS TO VISIBILITY.

MTZ001>007-043-201600-
WEST OF THE DIVIDE

CITY           SKY/WX    TMP DP  RH WIND       PRES   REMARKS
KALISPELL      FAIR      14  10  84 CALM      30.22S
MISSOULA       FAIR      19  16  88 CALM      30.23S
BUTTE          FAIR      13   7  77 E5        30.20S
MULLAN PASS    FAIR      34  23  64 S7        30.11S WCI  28
ANACONDA         N/A     27  19  74 S5        30.19S
DEER LODGE       N/A     18  16  93 CALM      30.22S
RONAN            N/A     28  27  93 CALM      30.20S FOG
$$

MTZ008-052>055-201600-
SOUTHWEST MONTANA

CITY           SKY/WX    TMP DP  RH WIND       PRES   REMARKS
BOZEMAN        FAIR      20  16  84 CALM      30.21R
DILLON         FAIR      21  16  81 S9        30.21R WCI  11
ENNIS          CLEAR     27  18  69 SE6       30.23S WCI  20
W YELLOWSTONE  CLOUDY    -6  -9  84 CALM      30.29R FOG
THREE FORKS      N/A     13   9  84 CALM      30.16S
$$

MTZ009-010-012-014-046-048-049-054-201600-
EAST SLOPES AND CENTRAL MONTANA

CITY           SKY/WX    TMP DP  RH WIND       PRES   REMARKS
CUT BANK       FAIR      39  26  59 W15       29.97F WCI  31
GREAT FALLS    FAIR      38  26  62 S15       30.03F WCI  29
MALMSTROM AFB  FAIR      37  27  65 SW15      30.04S WCI  28
HELENA         FAIR      21  18  88 CALM      30.19S
AUGUSTA        FAIR      34  23  64 S5        30.04S
CHOTEAU          N/A     39  27  60 SW7G13    30.01S
POWER          FAIR      28  23  80 SW9       30.03S WCI  19
RAYNESFORD     FAIR      39  23  52 CALM      30.05S
ULM            FAIR      32  25  74 S8        30.06  WCI  25
WHITE SULPHUR    N/A     34  21  60 S14       30.13R WCI  24
$$

MTZ011-013-016-021-045-047-050-051-201600-
NORTH CENTRAL MONTANA

CITY           SKY/WX    TMP DP  RH WIND       PRES   REMARKS
HAVRE          FAIR      32  26  78 SW8       30.00F WCI  25
LEWISTOWN      FAIR      28  23  81 SE7       30.05S WCI  21
N BAR RANCH    FAIR      36  23  60 W9        30.07S WCI  29
CHINOOK          N/A     28  25  86 CALM      29.99S
GRASS RANGE    FAIR      38  25  59 SW7       30.00F
JUDITH GAP     FAIR      28  19  69 S8        30.05S WCI  20
STANFORD       FAIR      33  22  64 CALM      30.04S
WINIFRED         N/A     40  25  54 SW7       30.02S
$$

MTZ017>020-022>027-061-062-201600-
NORTHEAST MONTANA

CITY           SKY/WX    TMP DP  RH WIND       PRES   REMARKS
GLASGOW        FAIR      28  25  88 NW3       30.00R
GLENDIVE       FAIR      27  24  89 S7        30.03R WCI  19
JORDAN           N/A     28  23  81 W3        30.03R
MALTA          CLEAR     25  23  93 W6        29.99S WCI  18
SIDNEY         FAIR      27  24  89 S9        30.00S WCI  18
WOLF POINT     FAIR      21  19  92 W7        30.01R WCI  12
POPLAR           N/A     23  19  86 CALM      30.00S
$$

MTZ028>42-056>058-201600-
SOUTHCENTRAL AND SOUTHEAST MONTANA

CITY           SKY/WX    TMP DP  RH WIND       PRES   REMARKS
BAKER          FAIR      28  24  85 NW5       30.05R
BILLINGS       FAIR      32  22  66 SW15      30.09S WCI  22
LIVINGSTON     FAIR      37  18  46 W28       30.13S WCI  25
MILES CITY     FAIR      26  22  84 S7        30.07R WCI  18
BIG TIMBER     CLEAR     37  19  48 W26G35    30.09S WCI  26
FORSYTH          N/A     32  23  69 W6        30.08S WCI  26
HARLOWTON      FAIR      36  23  60 SW7       30.07F WCI  30
LAUREL           N/A     32  23  69 SW6       30.12S WCI  26
ROUNDUP          N/A     34  21  59 SW3       29.98S
$$

REGIONAL REPORTS...DAKOTAS

CITY           SKY/WX    TMP DP  RH WIND       PRES   REMARKS
WILLISTON      CLOUDY    31  26  82 SW10      29.98S WCI  22
MINOT          CLOUDY    32  28  85 SW7       29.91S WCI  26
DICKINSON      FAIR      30  24  78 W16       29.97R WCI  19
BISMARCK       FAIR      31  25  78 W3        29.98R
GRAND FORKS    CLOUDY    21  17  84 S6        29.90S WCI  13
FARGO          CLOUDY    21  18  88 S13       29.95S WCI   9
BUFFALO SD       N/A     31  25  78 W10       30.01R WCI  22
RAPID CITY     FAIR      33  25  72 W6        30.09R WCI  28
$$

REGIONAL REPORTS...WYOMING/IDAHO/WASHINGTON

CITY           SKY/WX    TMP DP  RH WIND       PRES   REMARKS
GILLETTE       FAIR      36  23  59 SW13      30.12R WCI  27
SHERIDAN       FAIR      28  20  71 CALM      30.11R
BUFFALO WY     FAIR      38  20  48 W9        30.11S WCI  31
CODY           FAIR      23  20  88 CALM      30.17R
YELLOWSTONE LA   N/A     17  15  92 CALM      30.29R
IDAHO FALLS    FAIR      15  10  80 N7        30.28S WCI   5
SALMON         FAIR      12   8  84 CALM      30.33S FOG
BOISE          FAIR      29  20  69 SE9       30.25R WCI  20
SPOKANE        FAIR      25  22  88 NE5       30.17S
$$

REGIONAL REPORTS...ALBERTA

CITY           SKY/WX    TMP DP  RH WIND       PRES   REMARKS
CALGARY        MOCLDY    46  21  36 W18G28    29.87F
CARDSTON         N/A     45  25  45 W9          N/A
EDMONTON       PTCLDY    30  25  80 SW7       29.82F WCI  23
FORT MCMURRAY  FLURRIES  18  12  79 E14       29.92S WCI   4
HIGH LEVEL     FLURRIES  14  12  92 SE12      29.82S WCI   0
LETHBRIDGE     PTCLDY    43  27  52 SW18      29.92R
LLOYDMINSTER   FOG       19  18  93 SE5       29.86S VSB 0
MEDICINE HAT   PTCLDY    32  27  80 SW13      29.90F WCI  22
ONEFOUR          N/A     23  21  93 E9          N/A  WCI  13
PEACE RIVER    MOCLDY    25  23  93 SW3       29.75F
PINCHER CREEK  CLEAR     41  21  45 W17G23    29.99R
WATERTON GATE    N/A     43  23  45 SW24G33     N/A
$$

REGIONAL REPORTS...SASKATCHEWAN

CITY           SKY/WX    TMP DP  RH WIND       PRES   REMARKS
ESTEVAN        CLOUDY    28  28 100 W9        29.92R WCI  20
MOOSE JAW        N/A     27  25  93 W2          N/A
PRINCE ALBERT  LGT SNOW  18  14  86 E6        30.00R WCI   9
REGINA         CLOUDY    28  27  93 W6        29.92R FOG     WCI  22
ROCKGLEN         N/A     28  25  86 W13         N/A  WCI  18
SASKATOON      FOG       27  27 100 E2        29.94  VSB 1/2
SWIFT CURRENT  CLEAR     32  27  80 W15       29.91S WCI  22
VAL MARIE        N/A     28  23  80 N2          N/A
$$